Winfield, KS

5:03 PM CDT on September 21, 2019 (GMT -0500)
Strother

Weather History for KWLD - August, 2019

Change the Weather History Date:

Friday, August 23, 2019

  Actual Average Record
Temperature  
Mean Temperature 74 °F -  
Max Temperature 81 °F 90 °F 102 °F (2003)
Min Temperature 69 °F 67 °F 60 °F (2017)
Cooling Degree Days 10    
Growing Degree Days 24 (Base 50)    
Moisture  
Dew Point 69 °F    
Average Humidity 84    
Maximum Humidity 96    
Minimum Humidity 69    
Precipitation  
Precipitation 0.00 in - - ()
Sea Level Pressure  
Sea Level Pressure 29.98 in    
Wind  
Wind Speed 6 mph ()    
Max Wind Speed 13 mph    
Max Gust Speed -    
Visibility 10.0 miles    
Events      
Averages and records for this station are not official NWS values.
T = Trace of Precipitation, MM = Missing Value Source: Averaged Metar Reports

Daily Weather History Graph

Daily Weather History Graph

Search for Another Location

Airport or City:

Astronomy

Aug. 23, 2019 Rise Set
Actual Time 6:51 AM CDT 8:09 PM CDT
Civil Twilight 6:24 AM CDT 8:36 PM CDT
Nautical Twilight 5:51 AM CDT 9:09 PM CDT
Astronomical Twilight 5:17 AM CDT 9:43 PM CDT
Moon 12:11 AM CDT (8/23) 2:19 PM CDT (8/23)
Length of Visible Light 14h 12m
Length of Day
13h 18m
Waning Gibbous, 49% of the Moon is Illuminated
Aug 23
Waning Gibbous
Aug 30
New
Sep 5
First Quarter
Sep 13
Full
Sep 21
Last Quarter

Hourly Weather History & Observations

Time (CDT) Temp. Heat Index Dew Point Humidity Pressure Visibility Wind Dir Wind Speed Gust Speed Precip Events Conditions
12:54 AM 73.0 °F - 70.0 °F 90% 29.94 in 10.0 mi ENE 5.8 mph - N/A   Clear
1:54 AM 72.0 °F - 70.0 °F 93% 29.92 in 10.0 mi East 6.9 mph - N/A   Mostly Cloudy
2:54 AM 71.1 °F - 69.1 °F 93% 29.93 in 10.0 mi East 4.6 mph - N/A   Mostly Cloudy
3:54 AM 70.0 °F - 68.0 °F 93% 29.93 in 10.0 mi East 4.6 mph - N/A   Clear
4:54 AM 69.1 °F - 66.9 °F 93% 29.95 in 10.0 mi East 4.6 mph - N/A   Clear
5:54 AM 69.1 °F - 66.9 °F 93% 29.96 in 10.0 mi East 4.6 mph - N/A   Clear
6:54 AM 69.1 °F - 66.9 °F 93% 29.96 in 10.0 mi East 3.5 mph - N/A   Clear
7:03 AM 69.1 °F - 66.9 °F 93% 29.98 in 10.0 mi East 5.8 mph - N/A   Scattered Clouds
7:11 AM 69.1 °F - 68.0 °F 96% 29.98 in 10.0 mi East 6.9 mph - N/A   Mostly Cloudy
7:54 AM 70.0 °F - 68.0 °F 93% 29.96 in 10.0 mi ESE 9.2 mph - N/A   Overcast
8:54 AM 72.0 °F - 69.1 °F 91% 29.99 in 10.0 mi ESE 8.1 mph - N/A   Overcast
9:54 AM 72.0 °F - 69.1 °F 91% 29.99 in 10.0 mi Calm Calm - N/A   Overcast
10:39 AM 73.0 °F - 69.1 °F 87% 30.04 in 10.0 mi East 5.8 mph - N/A   Overcast
10:54 AM 73.9 °F - 69.1 °F 85% 30.01 in 10.0 mi ENE 5.8 mph - N/A   Overcast
11:54 AM 73.9 °F - 69.1 °F 85% 30.02 in 10.0 mi East 5.8 mph - N/A   Overcast
12:45 PM 77.0 °F - 70.0 °F 79% 30.02 in 10.0 mi East 9.2 mph - N/A   Overcast
12:54 PM 77.0 °F - 70.0 °F 79% 29.99 in 10.0 mi East 11.5 mph - N/A   Overcast
1:22 PM 77.0 °F - 70.0 °F 79% 30.01 in 10.0 mi East 9.2 mph - N/A   Overcast
1:54 PM 80.1 °F 83.6 °F 71.1 °F 74% 29.97 in 10.0 mi ESE 11.5 mph - N/A   Mostly Cloudy
2:54 PM 79.0 °F - 70.0 °F 74% 29.97 in 10.0 mi East 11.5 mph - N/A   Overcast
3:01 PM 79.0 °F - 70.0 °F 74% 30.00 in 10.0 mi East 12.7 mph - N/A   Overcast
3:10 PM 78.1 °F - 70.0 °F 76% 30.00 in 10.0 mi East 12.7 mph - N/A   Overcast
3:54 PM 79.0 °F - 70.0 °F 74% 29.95 in 10.0 mi ESE 9.2 mph - N/A   Mostly Cloudy
4:28 PM 77.0 °F - 68.0 °F 74% 29.99 in 10.0 mi East 9.2 mph - N/A   Overcast
4:35 PM 77.0 °F - 69.1 °F 76% 29.99 in 10.0 mi East 8.1 mph - N/A   Overcast
4:54 PM 78.1 °F - 69.1 °F 74% 29.96 in 10.0 mi East 9.2 mph - N/A   Overcast
5:54 PM 80.1 °F 82.9 °F 69.1 °F 69% 29.97 in 10.0 mi East 9.2 mph - N/A   Mostly Cloudy
6:54 PM 75.9 °F - 69.1 °F 79% 29.96 in 10.0 mi ESE 10.4 mph - N/A   Scattered Clouds
7:54 PM 73.9 °F - 69.1 °F 85% 29.98 in 10.0 mi ESE 6.9 mph - N/A   Clear
8:54 PM 73.0 °F - 69.1 °F 87% 29.99 in 10.0 mi East 6.9 mph - N/A   Clear
9:54 PM 72.0 °F - 68.0 °F 87% 29.99 in 10.0 mi ESE 8.1 mph - N/A   Clear
10:54 PM 72.0 °F - 66.9 °F 84% 29.96 in 10.0 mi ESE 11.5 mph - N/A   Clear
11:54 PM 72.0 °F - 66.9 °F 84% 30.00 in 10.0 mi ESE 4.6 mph - N/A   Clear